Location: McCloud Nature Park
(39.8272°N, 86.6824°W)
Time: 12:32:19
(UTC-05:00)

Amateur Radio Satellites - All Passes

Search period start: 25 July 2014 12:02
Search period end: 26 July 2014 12:02
Location: McCloud Nature Park, 39.8272°N, 86.6824°W

Satellite Date Start Highest point End Downlink Frequencies (MHz)
Time Altitude Azimuth
JAS-1B 25 Jul 12:03:18 12:03:34 10° 41° (NE) 12:03:51 435.800 - 435.900 CW/SSB
RS-15 25 Jul 12:14:46 12:21:27 18° 99° (E) 12:28:01 29.354 - 29.394 USB, Beacon 29.352 USB
Sapphire 25 Jul 12:17:38 12:21:46 23° 253° (WSW) 12:25:54 437.095 MHz 1200 baud AX-25 AFSK
Oscar 16 25 Jul 12:24:07 12:27:49 21° 64° (ENE) 12:31:31 437.025 USB, Beacon 2401.1428
ITAMSAT 1 25 Jul 12:38:22 12:40:34 13° 60° (ENE) 12:42:45 435.822 SSB
AO-Echo 25 Jul 12:45:16 12:48:17 16° 61° (ENE) 12:51:17 ?
AO-27 25 Jul 12:54:55 12:58:28 19° 63° (ENE) 13:02:01 436.795 MHz FM
Uribyol 2 25 Jul 12:57:04 13:00:48 20° 64° (ENE) 13:04:31 436.500 FM
KITSAT 1 25 Jul 13:11:02 13:13:48 12° 20° (NNE) 13:16:34 435.175 FM
SO-50 25 Jul 13:24:51 13:29:15 63° 119° (ESE) 13:33:44 436.795 FM
Oscar 19 25 Jul 13:33:56 13:39:02 88° 75° (ENE) 13:44:11 437.125 CW, 437.150 USB
JAS-1B 25 Jul 13:43:16 13:51:18 43° 63° (ENE) 14:00:13 435.800 - 435.900 CW/SSB
Oscar 16 25 Jul 14:01:53 14:06:48 48° 260° (W) 14:11:46 437.025 USB, Beacon 2401.1428
UOSAT-12 25 Jul 14:10:22 14:12:23 13° 107° (ESE) 14:14:26 437.025 FM, 437.400 FM
TMSAT-1 25 Jul 14:11:39 14:16:05 28° 67° (ENE) 14:20:31 436.925 FM
ITAMSAT 1 25 Jul 14:14:05 14:19:19 84° 256° (WSW) 14:24:34 435.822 SSB
RS-15 25 Jul 14:20:52 14:32:03 83° 119° (ESE) 14:43:00 29.354 - 29.394 USB, Beacon 29.352 USB
AO-Echo 25 Jul 14:21:08 14:26:24 72° 258° (WSW) 14:31:44 ?
AO-27 25 Jul 14:32:25 14:37:32 55° 259° (W) 14:42:40 436.795 MHz FM
Gurwin Techsat 1B 25 Jul 14:32:31 14:37:43 59° 73° (ENE) 14:42:57 435.225 FM
Uribyol 2 25 Jul 14:34:51 14:39:53 50° 260° (W) 14:44:57 436.500 FM
Uosat F 25 Jul 14:40:21 14:42:00 12° 59° (ENE) 14:43:39 435.120 FM
AO-7 25 Jul 14:58:43 15:05:52 33° 59° (ENE) 15:13:01 29.400 - 29.500 MHz
KITSAT 1 25 Jul 15:04:47 15:12:06 36° 47° (NE) 15:19:22 435.175 FM
SO-50 25 Jul 15:07:15 15:10:15 17° 318° (NW) 15:13:17 436.795 FM
JAS-1B 25 Jul 15:33:20 15:41:30 50° 264° (W) 15:50:50 435.800 - 435.900 CW/SSB
UOSAT-12 25 Jul 15:47:21 15:51:55 68° 304° (WNW) 15:56:36 437.025 FM, 437.400 FM
TMSAT-1 25 Jul 15:50:59 15:55:50 36° 263° (W) 16:00:43 436.925 FM
Gurwin Techsat 1B 25 Jul 16:14:46 16:18:03 17° 269° (W) 16:21:22 435.225 FM
Uosat F 25 Jul 16:14:58 16:20:02 87° 256° (WSW) 16:25:07 435.120 FM
Saudisat 1A 25 Jul 16:22:52 16:26:08 20° 45° (NE) 16:29:22 436.775 MHz
JAS-2 25 Jul 16:24:52 16:29:07 16° 57° (ENE) 16:33:16 435.800 - 435.900 CW/SSB, 435.910 FM
RS-15 25 Jul 16:36:09 16:45:42 33° 324° (NW) 16:55:15 29.354 - 29.394 USB, Beacon 29.352 USB
AO-7 25 Jul 16:50:01 16:58:12 58° 257° (WSW) 17:06:27 29.400 - 29.500 MHz
OPAL 25 Jul 16:53:40 16:58:44 75° 105° (ESE) 17:03:50 ?
KITSAT 1 25 Jul 16:59:59 17:07:50 57° 247° (WSW) 17:15:37 435.175 FM
UOSAT-12 25 Jul 17:31:26 17:32:58 11° 323° (NW) 17:34:32 437.025 FM, 437.400 FM
Hamsat 25 Jul 17:56:20 18:00:29 76° 76° (ENE) 18:04:41 145.90 MHz
Saudisat 1A 25 Jul 18:01:43 18:05:59 49° 243° (WSW) 18:10:12 436.775 MHz
JAS-2 25 Jul 18:05:13 18:13:03 76° 74° (ENE) 18:20:33 435.800 - 435.900 CW/SSB, 435.910 FM
OPAL 25 Jul 18:34:27 18:37:00 14° 301° (WNW) 18:39:33 ?
RS-15 25 Jul 18:56:08 19:03:00 18° 359° (N) 19:09:54 29.354 - 29.394 USB, Beacon 29.352 USB
STRAND 1 25 Jul 19:10:47 19:15:40 44° 99° (E) 19:20:30 ?
SO-67 25 Jul 19:22:05 19:25:32 66° 259° (W) 19:29:00 435.3500 MHz FM
HO-68 25 Jul 19:44:45 19:50:35 28° 60° (ENE) 19:56:24 435.675 MHz FM
JAS-2 25 Jul 19:52:50 19:58:32 22° 269° (W) 20:04:08 435.800 - 435.900 CW/SSB, 435.910 FM
UKube-1 25 Jul 19:57:14 19:58:56 12° 62° (ENE) 20:00:38 145.840 MHz, 145.915 MHz
Oscar 11 25 Jul 20:45:00 20:47:57 18° 66° (ENE) 20:50:55 145.825 FM, Beacon 2401.500 USB
STRAND 1 25 Jul 20:50:41 20:54:33 22° 295° (WNW) 20:58:23 ?
RS-15 25 Jul 21:11:05 21:20:29 31° 34° (NE) 21:30:02 29.354 - 29.394 USB, Beacon 29.352 USB
UKube-1 25 Jul 21:30:15 21:34:35 65° 258° (WSW) 21:38:57 145.840 MHz, 145.915 MHz
HO-68 25 Jul 21:30:47 21:37:49 58° 258° (WSW) 21:44:53 435.675 MHz FM
SO-50 25 Jul 21:57:05 22:01:40 47° 53° (NE) 22:06:19 436.795 FM
Oscar 11 25 Jul 22:19:51 22:23:51 38° 262° (W) 22:27:53 145.825 FM, Beacon 2401.500 USB
MaSat-1 25 Jul 22:21:16 22:25:10 70° 297° (WNW) 22:29:47 437.345 MHz
FUNcube-1 25 Jul 22:30:51 22:35:14 82° 257° (WSW) 22:39:33 145.950 - 145.970 MHz USB
UOSAT-12 25 Jul 22:39:12 22:41:32 13° 39° (NE) 22:43:51 437.025 FM, 437.400 FM
RS-15 25 Jul 23:23:18 23:34:24 90° 240° (WSW) 23:45:56 29.354 - 29.394 USB, Beacon 29.352 USB
SO-50 25 Jul 23:38:26 23:41:55 20° 249° (WSW) 23:45:26 436.795 FM
Lituanica SAT-1 25 Jul 23:47:03 23:48:58 33° 327° (NNW) 23:50:53 437.275 MHz beacon
PCSat 26 Jul 00:08:07 00:10:41 14° 103° (ESE) 00:13:15 145.825 MHz
UOSAT-12 26 Jul 00:17:41 00:22:26 83° 58° (ENE) 00:27:06 437.025 FM, 437.400 FM
ISS 26 Jul 00:18:30 00:21:35 36° 136° (SE) 00:24:42 145.800 FM
Sapphire 26 Jul 01:14:25 01:19:37 52° 113° (ESE) 01:24:52 437.095 MHz 1200 baud AX-25 AFSK
JAS-1B 26 Jul 01:34:13 01:37:28 12° 80° (E) 01:40:33 435.800 - 435.900 CW/SSB
AO-40 26 Jul 01:36:21 03:33:01 29° 211° (SSW) 07:39:42 Beacon 2401.320
RS-15 26 Jul 01:37:41 01:45:17 22° 259° (W) 01:53:06 29.354 - 29.394 USB, Beacon 29.352 USB
Oscar 19 26 Jul 01:46:37 01:51:15 33° 97° (E) 01:55:53 437.125 CW, 437.150 USB
PCSat 26 Jul 01:47:59 01:53:23 76° 299° (WNW) 01:58:49 145.825 MHz
ISS 26 Jul 01:55:22 01:58:20 29° 333° (NNW) 02:01:20 145.800 FM
UOSAT-12 26 Jul 02:01:03 02:01:52 10° 254° (WSW) 02:02:40 437.025 FM, 437.400 FM
Oscar 16 26 Jul 02:14:03 02:19:11 64° 102° (ESE) 02:24:18 437.025 USB, Beacon 2401.1428
ITAMSAT 1 26 Jul 02:28:06 02:32:53 37° 98° (E) 02:37:37 435.822 SSB
AO-Echo 26 Jul 02:29:45 02:34:34 40° 98° (E) 02:39:11 ?
TMSAT-1 26 Jul 02:30:42 02:31:47 11° 88° (E) 02:32:52 436.925 FM
OPAL 26 Jul 02:32:02 02:34:47 15° 60° (ENE) 02:37:32 ?
AO-27 26 Jul 02:46:11 02:51:18 57° 101° (E) 02:56:22 436.795 MHz FM
Uribyol 2 26 Jul 02:48:12 02:53:19 62° 101° (ESE) 02:58:25 436.500 FM
Gurwin Techsat 1B 26 Jul 02:50:07 02:54:27 25° 94° (E) 02:58:45 435.225 FM
Sapphire 26 Jul 02:59:00 03:03:20 24° 311° (NW) 03:07:42 437.095 MHz 1200 baud AX-25 AFSK
JAS-1B 26 Jul 03:20:23 03:29:55 68° 101° (E) 03:38:04 435.800 - 435.900 CW/SSB
Oscar 19 26 Jul 03:26:05 03:30:29 29° 293° (WNW) 03:34:53 437.125 CW, 437.150 USB
ISS 26 Jul 03:34:33 03:35:56 12° 352° (N) 03:37:18 145.800 FM
PCSat 26 Jul 03:35:06 03:37:44 14° 319° (NW) 03:40:22 145.825 MHz
Oscar 16 26 Jul 03:54:55 03:57:59 16° 298° (WNW) 04:01:04 437.025 USB, Beacon 2401.1428
TMSAT-1 26 Jul 04:07:02 04:12:21 85° 285° (WNW) 04:17:38 436.925 FM
ITAMSAT 1 26 Jul 04:07:56 04:12:11 26° 294° (WNW) 04:16:25 435.822 SSB
OPAL 26 Jul 04:08:12 04:13:07 66° 256° (WSW) 04:18:03 ?
AO-Echo 26 Jul 04:09:04 04:13:03 23° 295° (WNW) 04:16:56 ?
Uosat F 26 Jul 04:23:57 04:28:21 30° 97° (E) 04:32:43 435.120 FM
AO-27 26 Jul 04:26:55 04:30:20 18° 297° (WNW) 04:33:45 436.795 MHz FM
Lituanica SAT-1 26 Jul 04:28:07 04:28:43 11° 23° (NNE) 04:29:19 437.275 MHz beacon
Uribyol 2 26 Jul 04:29:07 04:32:16 17° 298° (WNW) 04:35:26 436.500 FM
Gurwin Techsat 1B 26 Jul 04:29:35 04:34:30 39° 291° (WNW) 04:39:23 435.225 FM
AO-7 26 Jul 04:52:19 05:00:26 53° 102° (ESE) 05:08:27 29.400 - 29.500 MHz
Oscar 10/S400 26 Jul 05:01:33 06:20:45 44° 233° (SW) 11:39:41 145.825 - 145.975 CW/USB, Beacon 145.810 USB
JAS-1B 26 Jul 05:11:36 05:19:32 31° 302° (WNW) 05:26:43 435.800 - 435.900 CW/SSB
ISS 26 Jul 05:11:58 05:13:48 14° 13° (NNE) 05:15:37 145.800 FM
KITSAT 1 26 Jul 05:33:56 05:39:59 24° 104° (ESE) 05:46:01 435.175 FM
Hamsat 26 Jul 05:44:13 05:46:36 15° 92° (E) 05:48:59 145.90 MHz
TMSAT-1 26 Jul 05:49:57 05:51:25 11° 301° (WNW) 05:52:54 436.925 FM
Lituanica SAT-1 26 Jul 05:59:23 06:01:21 49° 221° (SW) 06:03:19 437.275 MHz beacon
Uosat F 26 Jul 06:02:44 06:07:04 30° 293° (WNW) 06:11:23 435.120 FM
STRAND 1 26 Jul 06:25:52 06:30:55 60° 73° (ENE) 06:35:59 ?
MaSat-1 26 Jul 06:40:26 06:45:02 29° 55° (NE) 06:49:28 437.345 MHz
AO-7 26 Jul 06:45:35 06:52:53 36° 300° (WNW) 07:00:10 29.400 - 29.500 MHz
ISS 26 Jul 06:47:57 06:51:12 44° 32° (NNE) 06:54:26 145.800 FM
JAS-2 26 Jul 07:02:13 07:08:18 69° 101° (ESE) 07:13:43 435.800 - 435.900 CW/SSB, 435.910 FM
Hamsat 26 Jul 07:18:41 07:22:48 46° 287° (WNW) 07:26:55 145.90 MHz
KITSAT 1 26 Jul 07:26:30 07:34:35 73° 302° (WNW) 07:42:42 435.175 FM
PANSAT 26 Jul 07:43:39 07:45:54 15° 178° (S) 07:48:10 not established
Saudisat 1A 26 Jul 08:07:14 08:11:29 50° 117° (ESE) 08:15:47 436.775 MHz
STRAND 1 26 Jul 08:07:27 08:10:28 16° 268° (W) 08:13:31 ?
MaSat-1 26 Jul 08:17:34 08:22:31 40° 253° (WSW) 08:27:11 437.345 MHz
SO-67 26 Jul 08:19:47 08:23:08 47° 285° (WNW) 08:26:29 435.3500 MHz FM
ISS 26 Jul 08:25:09 08:27:43 20° 228° (SW) 08:30:15 145.800 FM
JAS-2 26 Jul 08:48:48 08:52:34 17° 302° (WNW) 08:56:07 435.800 - 435.900 CW/SSB, 435.910 FM
PCSat 26 Jul 08:55:16 08:57:45 13° 40° (NE) 09:00:12 145.825 MHz
HO-68 26 Jul 08:59:46 09:05:48 29° 95° (E) 09:11:47 435.675 MHz FM
UKube-1 26 Jul 09:20:01 09:23:25 22° 95° (E) 09:26:48 145.840 MHz, 145.915 MHz
PANSAT 26 Jul 09:23:47 09:25:23 12° 191° (S) 09:26:59 not established
KITSAT 1 26 Jul 09:25:48 09:31:29 20° 325° (NW) 09:37:12 435.175 FM
Saudisat 1A 26 Jul 09:48:05 09:51:21 20° 315° (NW) 09:54:37 436.775 MHz
Sapphire 26 Jul 10:03:11 10:08:11 36° 54° (NE) 10:13:10 437.095 MHz 1200 baud AX-25 AFSK
Oscar 11 26 Jul 10:08:00 10:12:04 38° 98° (E) 10:16:07 145.825 FM, Beacon 2401.500 USB
FUNcube-1 26 Jul 10:21:41 10:24:40 19° 94° (E) 10:27:39 145.950 - 145.970 MHz USB
PCSat 26 Jul 10:36:42 10:42:09 73° 60° (ENE) 10:47:32 145.825 MHz
HO-68 26 Jul 10:46:52 10:53:45 52° 292° (WNW) 11:00:35 435.675 MHz FM
UKube-1 26 Jul 10:55:48 10:59:39 31° 291° (WNW) 11:03:28 145.840 MHz, 145.915 MHz
RS-15 26 Jul 11:42:58 11:46:04 12° 96° (E) 11:49:08 29.354 - 29.394 USB, Beacon 29.352 USB
Oscar 11 26 Jul 11:44:59 11:47:58 18° 294° (WNW) 11:50:56 145.825 FM, Beacon 2401.500 USB
Sapphire 26 Jul 11:46:46 11:51:30 31° 251° (WSW) 11:56:12 437.095 MHz 1200 baud AX-25 AFSK
Oscar 16 26 Jul 11:55:52 11:56:53 11° 59° (ENE) 11:57:55 437.025 USB, Beacon 2401.1428
